FW0761 Weather Reports


time (UTC)temp
C
wind
direction
speed
KPH
gust
KPH
rain 1hr
cm
rain 24hr
cm
rain mn
cm
humidity
%
barometer
mb
20260906120014 -67 360 0.0 0.0 0.00 0.33 0.33 1011.9
20260906114510 -67 292 0.0 0.0 0.00 0.33 0.33 1011.7
20260906113003 -67 292 0.0 0.0 0.00 0.33 0.33 1011.5
20260906111601 -67 292 0.0 0.0 0.00 0.33 0.33 1011.3
20260906110055 -67 292 0.0 0.0 0.00 0.33 0.33 1011.3
20260906104550 -67 288 0.0 0.0 0.00 0.33 0.33 1011.2
20260906103054 -67 284 0.0 0.0 0.00 0.33 0.33 1011.0
20260906101538 -67 284 0.0 0.0 0.00 0.33 0.33 1011.1
20260906100036 -67 284 0.0 0.0 0.00 0.33 0.33 1010.8
20260906094529 -67 283 0.0 0.0 0.00 0.33 0.33 1010.5
20260906093025 -67 283 0.0 0.0 0.00 0.33 0.33 1010.5
20260906091517 -67 283 0.0 0.0 0.00 0.33 0.33 1010.7
20260906090014 -67 283 0.0 0.0 0.00 0.33 0.33 1010.6
20260906084509 -67 281 0.0 0.0 0.00 0.33 0.33 1010.7
20260906083005 -67 281 0.0 0.0 0.00 0.33 0.33 1010.6
20260906081530 -67 281 0.0 0.0 0.00 0.33 0.33 1010.4
20260906080029 -67 281 0.0 0.0 0.00 0.33 0.33 1010.4
20260906074519 -67 281 0.0 0.0 0.00 0.33 0.33 1010.7
20260906073014 -67 281 0.0 0.0 0.00 0.33 0.33 1010.7
20260906071509 -67 281 0.0 0.0 0.00 0.33 0.33 1010.8
20260906070005 -67 281 0.0 0.0 0.00 0.33 0.33 1010.7
20260906064559 -67 281 0.0 0.0 0.00 0.33 0.33 1011.0
20260906063054 -67 281 0.0 0.0 0.00 0.33 0.33 1010.8
20260906061549 -67 281 0.0 0.0 0.00 0.33 0.33 1010.7
20260906060045 -67 277 0.0 0.0 0.00 0.33 0.33 1010.8
20260906054523 -67 272 0.0 0.0 0.00 0.33 0.33 1011.0
20260906053006 -67 272 0.0 0.0 0.00 0.33 0.33 1010.7
20260906051502 -67 272 0.0 0.0 0.00 0.33 0.33 1010.6
20260906050003 -67 272 0.0 0.0 0.00 0.33 0.33 1010.5
20260906044501 -67 272 0.0 0.0 0.00 0.33 0.33 1010.8
20260906043106 -67 273 0.0 0.0 0.00 0.33 0.33 1010.9
20260906041555 -67 273 0.0 0.0 0.00 0.33 0.33 1011.3
20260906040050 -67 275 0.0 0.0 0.00 0.33 0.33 1011.8
20260906034548 -67 279 0.0 0.0 0.00 0.33 0.33 1011.7
20260906033044 -67 286 0.0 0.0 0.00 0.33 0.33 1012.0
20260906031534 -67 286 0.0 0.0 0.00 0.33 0.33 1012.2
20260906030030 -67 286 0.0 0.0 0.00 0.33 0.33 1012.5
20260906024526 -67 286 0.0 0.0 0.00 0.33 0.33 1011.9
20260906023020 -67 286 0.0 0.0 0.00 0.33 0.33 1012.0
20260906021523 -67 286 0.0 0.0 0.00 0.33 0.33 1011.8
20260906020013 -67 292 0.0 0.0 0.00 0.33 0.33 1012.4
20260906014513 -67 292 0.0 0.0 0.00 0.33 0.33 1012.0
20260906013101 -67 294 0.0 0.0 0.00 0.33 0.33 1012.2
20260906011604 -67 297 0.0 0.0 0.00 0.33 0.33 1012.3
20260906010050 -67 300 0.0 0.0 0.00 0.33 0.33 1011.7
20260906004545 -17 301 0.0 0.0 0.00 0.33 0.33 1011.2
20260906003040 -17 301 0.0 0.0 0.00 0.33 0.33 1011.2
20260906001535 -17 301 0.0 0.0 0.03 0.33 0.33 1011.1
20260906000029 -17 301 0.0 0.0 0.33 0.33 0.33 1011.1
20260905234524 -17 301 0.0 0.0 0.33 0.33 0.33 1011.1
20260905233021 -17 301 0.0 0.0 0.33 0.33 0.33 1012.1
20260905231515 -17 301 0.0 0.0 0.30 0.30 0.30 1012.2
20260905230009 -67 306 0.0 0.0 0.00 0.00 0.00 1012.2
20260905224513 -67 215 0.0 0.0 0.00 0.00 0.00 1011.3
20260905223059 -67 196 0.0 0.0 0.00 0.00 0.00 1010.0
20260905221559 -67 196 0.0 0.0 0.00 0.00 0.00 1010.5
20260905220049 -67 196 0.0 0.0 0.00 0.00 0.00 1010.0
20260905214544 -67 198 0.0 0.0 0.00 0.00 0.00 1009.9
20260905213040 -67 198 0.0 0.0 0.00 0.00 0.00 1009.9
20260905211538 -67 200 0.0 0.0 0.00 0.00 0.00 1010.1
20260905210002 -67 200 0.0 0.0 0.00 0.00 0.00 1009.9
20260905204558 -67 202 0.0 0.0 0.00 0.00 0.00 1009.9
20260905203051 -67 202 0.0 0.0 0.00 0.00 0.00 1009.7
20260905201546 -67 204 0.0 0.0 0.00 0.00 0.00 1010.0
20260905200047 -67 202 0.0 0.0 0.00 0.00 0.00 1009.8
20260905194541 -67 207 0.0 0.0 0.00 0.00 0.00 1010.0
20260905193034 -67 206 0.0 0.0 0.00 0.00 0.00 1010.2
20260905191536 -67 207 0.0 0.0 0.00 0.00 0.00 1010.5
20260905190122 -67 206 0.0 0.0 0.00 0.00 0.00 1010.8
20260905184522 -67 205 0.0 0.0 0.00 0.00 0.00 1011.2
20260905183010 -67 202 0.0 0.0 0.00 0.00 0.00 1011.5
20260905181506 -67 208 0.0 0.0 0.00 0.00 0.00 1011.5
20260905180001 -67 208 0.0 0.0 0.00 0.00 0.00 1011.7
20260905174557 -67 208 0.0 0.0 0.00 0.00 0.00 1011.9
20260905173049 -67 208 0.0 0.0 0.00 0.00 0.00 1012.0
20260905171550 -67 208 0.0 0.0 0.00 0.00 0.00 1012.2
20260905170040 -67 208 0.0 0.0 0.00 0.00 0.00 1012.3
20260905164536 -67 208 0.0 0.0 0.00 0.00 0.00 1012.4
20260905163002 -67 208 0.0 0.0 0.00 0.00 0.00 1012.7
20260905161557 -67 209 0.0 0.0 0.00 0.00 0.00 1012.9
20260905160023 -67 209 0.0 0.0 0.00 0.00 0.00 1013.1
20260905154517 -67 208 0.0 0.0 0.00 0.00 0.00 1013.3
20260905153011 -67 208 0.0 0.0 0.00 0.00 0.00 1013.4
20260905151512 -67 209 0.0 0.0 0.00 0.00 0.00 1013.6
20260905150005 -67 209 0.0 0.0 0.00 0.00 0.00 1013.6
20260905144514 -67 211 0.0 0.0 0.00 0.00 0.00 1013.5
20260905143034 -67 213 0.0 0.0 0.00 0.00 0.00 1013.6
20260905141547 -67 213 0.0 0.0 0.00 0.00 0.00 1013.6
20260905140004 -67 213 0.0 0.0 0.00 0.00 0.00 1013.8
20260905134503 -67 213 0.0 0.0 0.00 0.00 0.00 1013.8
20260905133100 -67 214 0.0 0.0 0.00 0.00 0.00 1013.7
20260905131616 -67 219 0.0 0.0 0.00 0.00 0.00 1013.9
20260905130100 -67 213 0.0 0.0 0.00 0.00 0.00 1013.9
20260905124559 -67 215 0.0 0.0 0.00 0.00 0.00 1013.9
20260905123029 -67 216 0.0 0.0 0.00 0.00 0.00 1013.8
20260905121531 -67 216 0.0 0.0 0.00 0.00 0.00 1014.0